Stations météo

réclame
Mon MeteoGroup
Tännäs, Suède (2308): Température de l'air & dewpoint: 14.10.2018 19:00:00 - 20.10.2018 19:00:00 (CEST)Tännäs, Suède (2308): Vitesse du vent & gusts: 14.10.2018 19:00:00 - 20.10.2018 19:00:00 (CEST)Tännäs, Suède (2308): Direction du vent: 14.10.2018 19:00:00 - 20.10.2018 19:00:00 (CEST)Tännäs, Suède (2308): reduced air pressure: 14.10.2018 19:00:00 - 20.10.2018 19:00:00 (CEST)Tännäs, Suède (2308): visibility: 14.10.2018 19:00:00 - 20.10.2018 19:00:00 (CEST)Tännäs, Suède (2308): Quantités de précipitations: 14.10.2018 19:00:00 - 20.10.2018 19:00:00 (CEST)
Date & Time tt [°C] td [°C] ff [km/h] ff [knt] fx [km/h] fx [knt] dd ppp [hPa] vv [km] rr [mm]
20.10.2018 19:00:00 1,9 -3,1 5 3 10 5 S 1021,0 50 0,0
20.10.2018 18:00:00 3,8 -2,6 2 1 9 5 S 1020,7 50 0,0
20.10.2018 17:00:00 5,0 -2,8 0 0 11 6 N 1020,7 50 0,0
20.10.2018 16:00:00 5,2 -2,4 0 0 11 6 N 1020,7 50 0,0
20.10.2018 15:00:00 6,8 -1,6 5 3 11 6 W 1020,7 50 0,0
20.10.2018 14:00:00 6,2 -1,7 4 2 14 8 W 1020,8 50 0,0
20.10.2018 13:00:00 6,2 -0,8 7 4 14 8 W 1021,2 50 0,0
20.10.2018 12:00:00 4,8 -0,4 5 3 13 7 W 1021,3 50 0,0
20.10.2018 11:00:00 4,6 -0,8 4 2 11 6 W 1021,0 50 0,0
20.10.2018 10:00:00 1,6 -1,5 2 1 8 5 SSE 1021,4 50 0,0
20.10.2018 09:00:00 0,0 -2,7 3 2 8 5 NNE 1020,9 50 0,0
20.10.2018 08:00:00 0,1 -2,6 0 0 12 6 N 1020,6 50 0,0
20.10.2018 07:00:00 0,6 -2,5 4 2 12 6 NW 1019,8 50 0,0
20.10.2018 06:00:00 0,7 -2,4 4 2 10 5 WNW 1019,5 50 0,0
20.10.2018 05:00:00 1,7 -1,9 3 2 16 9 NNW 1018,9 50 0,0
20.10.2018 04:00:00 2,4 -1,8 5 3 16 9 WNW 1018,5 50 0,0
20.10.2018 03:00:00 1,5 -3,4 3 2 12 7 SSW 1018,5 50 0,0
20.10.2018 02:00:00 2,4 -3,1 2 1 12 7 SSW 1018,5 50 0,0
20.10.2018 01:00:00 2,3 -3,4 5 3 10 6 S 1018,7 50 0,0
20.10.2018 00:00:00 2,5 -3,6 3 2 11 6 SW 1018,8 50 0,0
19.10.2018 23:00:00 2,3 -3,6 5 3 11 6 S 1019,1 50 0,0
19.10.2018 22:00:00 2,8 -4,2 3 2 11 6 SW 1018,9 50 0,0
19.10.2018 21:00:00 3,1 -4,4 4 2 11 6 SSE 1018,7 50 0,0
19.10.2018 20:00:00 3,1 -4,6 2 1 14 7 SSE 1019,0 50 0,0
19.10.2018 19:00:00 4,0 -3,8 4 2 14 7 SE 1018,9 50 0,0
19.10.2018 18:00:00 4,4 -4,1 4 2 11 6 SSE 1019,1 50 0,0
19.10.2018 17:00:00 5,0 -3,3 5 3 11 6 S 1019,4 50 0,0
19.10.2018 16:00:00 6,0 -2,9 4 2 9 5 S 1019,4 50 0,0
19.10.2018 15:00:00 6,7 -2,5 2 1 9 5 SSE 1019,9 50 0,0
19.10.2018 14:00:00 6,4 -2,0 4 2 9 5 S 1020,7 50 0,0
19.10.2018 13:00:00 5,6 -2,5 3 1 10 5 SW 1021,1 50 0,0
19.10.2018 12:00:00 4,9 -2,2 5 3 9 5 S 1021,7 50 0,0
19.10.2018 11:00:00 3,3 -2,7 3 2 9 5 S 1022,5 50 0,0
19.10.2018 10:00:00 2,4 -2,9 0 0 8 4 N 1022,6 50 0,0
19.10.2018 09:00:00 1,9 -3,2 0 0 11 6 N 1022,4 50 0,0
19.10.2018 08:00:00 1,5 -2,4 3 1 16 9 NW 1022,1 50 0,0
19.10.2018 07:00:00 1,8 -2,2 6 4 18 10 WNW 1021,4 50 0,0
19.10.2018 06:00:00 - - - - 18 10 - - - -
19.10.2018 05:00:00 1,5 -2,1 6 4 21 12 WNW 1022,3 50 0,0
19.10.2018 04:00:00 1,6 -2,2 8 5 21 12 W 1022,4 36 0,0
19.10.2018 03:00:00 1,7 -2,6 4 2 21 11 WSW 1022,2 50 0,0
19.10.2018 02:00:00 2,4 -1,8 8 4 18 10 WNW 1021,5 47 0,0
19.10.2018 01:00:00 1,1 -3,6 4 2 16 9 WSW 1021,5 50 0,0
19.10.2018 00:00:00 0,6 -3,7 4 2 11 6 NW 1021,9 50 0,0
18.10.2018 23:00:00 0,6 -4,1 0 0 11 6 N 1021,8 50 0,0
18.10.2018 22:00:00 0,1 -4,2 0 0 16 9 N 1021,4 50 0,0
18.10.2018 21:00:00 1,0 -4,0 3 2 16 9 N 1021,0 50 0,0
18.10.2018 20:00:00 2,4 -3,5 5 3 13 7 NW 1020,2 50 0,0
18.10.2018 19:00:00 2,9 -4,1 4 2 21 11 WNW 1019,6 50 0,0
18.10.2018 18:00:00 4,6 -4,9 3 2 23 12 W 1018,7 50 0,0
18.10.2018 17:00:00 5,7 -4,5 7 4 24 13 W 1017,9 50 0,0
18.10.2018 16:00:00 6,7 -4,1 9 5 27 15 W 1017,2 50 0,0
18.10.2018 15:00:00 7,3 -4,5 8 4 28 15 W 1016,5 50 0,0
18.10.2018 14:00:00 7,0 -3,8 9 5 30 16 W 1016,2 50 0,0
18.10.2018 13:00:00 7,1 -4,0 10 5 30 16 W 1015,6 50 0,0
18.10.2018 12:00:00 5,4 -4,2 8 4 18 10 W 1015,9 50 0,0
18.10.2018 11:00:00 5,2 -2,6 5 3 12 6 WSW 1015,8 50 0,0
18.10.2018 10:00:00 2,5 -4,3 2 1 16 9 S 1016,4 50 0,0
18.10.2018 09:00:00 0,6 -4,2 3 2 22 12 N 1016,4 50 0,0
18.10.2018 08:00:00 3,5 -3,8 9 5 22 12 WNW 1014,6 50 0,0
18.10.2018 07:00:00 0,5 -3,6 0 0 12 7 N 1015,1 50 0,0
18.10.2018 06:00:00 0,1 -3,3 0 0 6 3 N 1015,0 50 0,0
18.10.2018 05:00:00 0,2 -2,8 0 0 9 5 N 1014,9 50 0,0
18.10.2018 04:00:00 1,1 -2,0 2 1 14 8 NW 1014,8 50 0,0
18.10.2018 03:00:00 2,2 -1,6 4 2 18 10 NNW 1014,5 50 0,0
18.10.2018 02:00:00 4,8 0,2 6 3 18 10 W 1013,3 50 0,0
18.10.2018 01:00:00 4,8 1,3 4 2 13 7 SSW 1013,1 50 0,0
18.10.2018 00:00:00 4,8 1,1 5 3 13 7 SW 1013,0 50 0,0
17.10.2018 23:00:00 5,6 1,5 4 2 12 7 WSW 1012,3 50 0,0
17.10.2018 22:00:00 - - - - 12 7 - - - -
17.10.2018 21:00:00 5,3 1,6 4 2 16 9 SW 1012,0 50 0,0
17.10.2018 20:00:00 6,5 1,8 6 3 19 11 SW 1011,1 50 0,0
17.10.2018 19:00:00 7,3 2,0 4 2 19 11 WNW 1010,8 50 0,0
17.10.2018 18:00:00 - - - - 18 10 - - - -
17.10.2018 17:00:00 8,2 2,6 4 2 17 9 NW 1010,4 50 0,0
17.10.2018 16:00:00 8,4 2,6 0 0 17 9 N 1010,3 50 0,0
17.10.2018 15:00:00 10,1 4,2 7 4 18 10 SW 1009,9 50 0,0
17.10.2018 14:00:00 9,0 4,0 6 4 21 12 SW 1010,3 50 0,0
17.10.2018 13:00:00 8,2 3,6 6 3 21 12 SSW 1010,3 50 0,0
17.10.2018 12:00:00 7,3 3,7 9 5 18 10 SW 1010,9 50 0,0
17.10.2018 11:00:00 6,7 2,8 4 2 18 10 SW 1011,5 50 0,0
17.10.2018 10:00:00 6,4 2,8 6 3 17 9 SSW 1011,3 50 0,0
17.10.2018 09:00:00 5,5 2,3 7 4 18 10 SSW 1011,1 50 0,0
17.10.2018 08:00:00 5,3 1,8 6 3 27 14 SW 1011,8 50 0,0
17.10.2018 07:00:00 5,0 1,3 6 4 27 14 S 1011,7 50 0,0
17.10.2018 06:00:00 5,0 1,3 9 5 24 13 SW 1011,8 50 0,0
17.10.2018 05:00:00 4,8 0,7 8 4 26 14 SSW 1012,2 50 0,0
17.10.2018 04:00:00 4,7 0,5 11 6 26 14 S 1012,8 50 0,0
17.10.2018 03:00:00 3,8 0,3 6 4 28 15 SSW 1013,6 50 0,0
17.10.2018 02:00:00 3,8 0,7 12 6 28 15 S 1014,1 50 0,0
17.10.2018 01:00:00 3,9 0,8 11 6 24 13 S 1014,3 50 0,0
17.10.2018 00:00:00 4,0 0,9 6 4 24 13 S 1015,1 50 0,0
16.10.2018 23:00:00 3,5 0,7 8 4 24 13 S 1015,9 50 0,0
16.10.2018 22:00:00 3,2 -0,1 6 3 20 11 SSE 1016,5 50 0,0
16.10.2018 21:00:00 3,0 -0,5 6 4 18 10 ESE 1017,3 50 0,0
16.10.2018 20:00:00 3,2 -1,4 5 3 19 10 SSE 1017,8 50 0,0
16.10.2018 19:00:00 3,7 -2,1 6 4 19 10 SSE 1017,7 50 0,0
16.10.2018 18:00:00 4,0 -3,1 5 3 15 8 S 1018,2 50 0,0
16.10.2018 17:00:00 5,5 -1,7 5 3 14 8 S 1018,4 50 0,0
16.10.2018 16:00:00 6,7 -1,5 4 2 20 11 SSW 1017,7 50 0,0
16.10.2018 15:00:00 6,4 -0,8 6 3 20 11 SSE 1018,0 50 0,0
16.10.2018 14:00:00 7,4 0,1 6 3 16 8 SE 1018,0 49 0,0
16.10.2018 13:00:00 7,0 1,5 4 2 8 4 S 1018,6 50 0,0
16.10.2018 12:00:00 4,3 -1,5 3 2 10 5 S 1019,5 50 0,0
16.10.2018 11:00:00 1,5 -1,6 3 2 10 5 S 1020,9 50 0,0
16.10.2018 10:00:00 0,0 -2,7 3 2 6 4 SE 1021,1 50 0,0
16.10.2018 09:00:00 -0,7 -3,1 0 0 6 3 N 1020,5 50 0,0
16.10.2018 08:00:00 -0,7 -3,4 3 2 10 5 SSE 1019,9 50 0,0
16.10.2018 07:00:00 -0,8 -2,8 0 0 10 5 N 1019,3 50 0,0
16.10.2018 06:00:00 -0,8 -2,7 3 2 9 5 N 1018,7 50 0,0
16.10.2018 05:00:00 -0,3 -2,0 3 2 11 6 NNW 1018,3 50 0,0
16.10.2018 04:00:00 0,0 -2,1 4 2 11 6 NW 1018,0 50 0,0
16.10.2018 03:00:00 0,4 -1,5 5 3 11 6 NW 1017,5 50 0,0
16.10.2018 02:00:00 0,4 -1,5 4 2 10 6 NW 1017,1 50 0,0
16.10.2018 01:00:00 1,1 -1,0 4 2 11 6 NW 1016,5 50 0,0
16.10.2018 00:00:00 1,3 -0,8 3 2 11 6 NW 1016,1 50 0,0
15.10.2018 23:00:00 1,6 -0,3 3 1 9 5 NNW 1015,5 50 0,0
15.10.2018 22:00:00 1,7 -0,6 2 1 7 4 NNW 1014,9 50 0,0
15.10.2018 21:00:00 2,6 -0,5 0 0 5 3 N 1014,5 6 0,0
15.10.2018 20:00:00 - - - - - - - - - -
15.10.2018 19:00:00 2,9 -0,2 0 0 4 2 N 1013,8 19 0,0
15.10.2018 18:00:00 3,1 0,2 0 0 4 2 N 1013,9 3,4 0,2
15.10.2018 17:00:00 3,4 1,0 0 0 5 3 N 1013,6 2,6 0,2
15.10.2018 16:00:00 3,5 0,7 0 0 5 3 N 1013,3 2,8 0,5
15.10.2018 15:00:00 3,5 0,9 0 0 7 4 N 1013,1 5 0,4
15.10.2018 14:00:00 3,4 1,1 2 1 7 4 E 1013,2 2,0 0,8
15.10.2018 13:00:00 3,5 1,4 0 0 8 4 N 1013,5 2,5 0,5
15.10.2018 12:00:00 3,6 1,3 2 1 8 4 S 1013,2 8 0,6
15.10.2018 11:00:00 3,3 0,7 0 0 4 2 N 1013,7 2,5 0,5
15.10.2018 10:00:00 3,5 -0,2 0 0 5 3 N 1013,0 3,5 0,0
15.10.2018 09:00:00 3,2 0,1 0 0 9 5 N 1012,9 50 0,1
15.10.2018 08:00:00 3,2 -0,3 2 1 9 5 WNW 1012,3 37 0,0
15.10.2018 07:00:00 3,2 -0,1 3 1 13 7 W 1011,8 50 0,0
15.10.2018 06:00:00 3,1 0,3 3 1 15 8 S 1011,4 50 0,0
15.10.2018 05:00:00 3,3 0,4 5 3 21 11 WNW 1010,6 50 0,0
15.10.2018 04:00:00 - - - - 27 15 - - - -
15.10.2018 03:00:00 4,5 2,2 9 5 27 15 W 1008,6 35 0,4
15.10.2018 02:00:00 9,8 5,4 10 6 32 18 S 1004,5 16 0,0
15.10.2018 01:00:00 9,9 5,5 15 8 35 19 S 1004,3 17 0,0
15.10.2018 00:00:00 10,1 5,9 14 8 36 20 S 1004,9 18 0,0
14.10.2018 23:00:00 10,4 6,0 13 7 36 20 S 1005,3 20 0,0
14.10.2018 22:00:00 11,1 6,0 12 6 31 17 SSW 1005,7 23 0,0
14.10.2018 21:00:00 11,6 6,3 12 7 33 18 SSW 1005,8 28 0,0
14.10.2018 20:00:00 12,3 6,8 12 6 33 18 S 1005,4 35 0,0
14.10.2018 19:00:00 13,0 7,0 13 7 36 19 SSW 1005,4 39 0,0

tt = Température de l'air
td = dewpoint
ff = Vitesse du vent
fx = gusts
dd = Direction du vent
ppp = reduced air pressure
vv = visibility
rr = Quantités de précipitations

stations d'obs. à proximité